Date String (YYYY-MM-DD hh:mm:ss) UTC,Instrument flags,absolute air pressure of the measurement (hPa),sample flow rate (lpm),inlet stack bypass flow (lpm),air temperature of the measurement (°C),ambient temperature measured by the external sensor (°C),aerosol sample conditioner tube jacket temperature (°C),OPC LED temperature (°C),internal box temperature (°C),relative humidity of the measurement (%),span deviation,mass concentration of particles derived from Lorenz-Mie calculation of OPC scattering (μg/m³),mass concentration of particles derived from Lorenz-Mie calculation of OPC scattering (μg/m³),mass concentration of particles derived from Lorenz-Mie calculation of OPC scattering (μg/m³)
DateTimeUTC,F1_M11,P_M11,Q1_M11,Q2_M11,T1_M11,T2_M11,T3_M11,T4_M11,T5_M11,U1_M11,ZSPAN_M11,X2_M11,X0_M11,X1_M11
2024-01-12 17:00:00,SystemResetWarning,0817.3,4.99,000.00,018.8,017.8,000.0,027.3,020.0,6.4,0000.0,0000.64,0003.64,0000.31
2024-01-12 17:01:00,SystemResetWarning,0817.4,5.00,000.00,018.8,017.7,000.0,027.3,020.0,6.4,0000.0,0000.61,0003.43,0000.31
2024-01-12 17:02:00,SystemResetWarning,0817.3,5.01,000.00,018.8,017.5,000.0,027.3,020.0,6.5,0000.0,0000.47,0002.12,0000.30
2024-01-12 17:03:00,SystemResetWarning,0817.4,5.01,000.00,018.8,017.5,000.0,027.3,020.0,6.5,0000.0,0000.48,0002.05,0000.30
2024-01-12 17:04:00,SystemResetWarning,0817.3,4.99,000.00,018.8,017.4,000.0,027.3,020.0,6.5,0000.0,0000.48,0002.00,0000.30
2024-01-12 17:05:00,SystemResetWarning,0817.3,4.99,000.00,018.7,017.3,000.0,027.3,020.0,6.5,0000.0,0000.47,0002.01,0000.30
2024-01-12 17:06:00,SystemResetWarning,0817.3,5.00,000.00,018.7,017.3,000.0,027.3,020.0,6.5,0000.0,0000.50,0001.48,0000.31
2024-01-12 17:07:00,SystemResetWarning,0817.4,5.02,000.00,018.8,017.7,000.0,027.3,020.3,6.4,0000.0,0000.49,0000.89,0000.31
2024-01-12 17:08:00,SystemResetWarning,0817.4,5.00,000.00,019.0,018.9,000.0,027.3,020.9,6.4,0000.0,0000.50,0000.93,0000.32
2024-01-12 17:09:00,SystemResetWarning,0817.4,5.00,000.00,019.1,019.5,000.0,027.3,021.0,6.5,0000.0,0000.48,0000.90,0000.31
2024-01-12 17:10:00,SystemResetWarning,0817.4,4.99,000.00,019.2,019.4,000.0,027.3,020.7,6.5,0000.0,0000.49,0000.90,0000.31
2024-01-12 17:11:00,SystemResetWarning,0817.3,4.99,000.00,019.1,019.2,000.0,027.3,020.4,6.4,0000.0,0000.51,0000.99,0000.31
2024-01-12 17:12:00,SystemResetWarning,0817.2,5.00,000.00,019.1,018.8,000.0,027.3,020.2,6.3,0000.0,0000.53,0001.07,0000.32
2024-01-12 17:13:00,SystemResetWarning,0817.2,5.01,000.00,019.0,018.5,000.0,027.3,020.0,6.3,0000.0,0000.54,0001.09,0000.32
2024-01-12 17:14:00,SystemResetWarning,0817.2,4.99,000.00,019.0,018.2,000.0,027.3,020.0,6.4,0000.0,0000.50,0001.68,0000.32
2024-01-12 17:15:00,SystemResetWarning,0817.2,5.00,000.00,018.9,018.0,000.0,027.3,020.0,6.3,0000.0,0000.50,0003.21,0000.32
2024-01-12 17:16:00,SystemResetWarning,0817.2,5.00,000.00,018.9,017.9,000.0,027.3,020.0,6.4,0000.0,0000.51,0003.22,0000.32
2024-01-12 17:17:00,SystemResetWarning,0817.2,5.00,000.00,018.9,017.7,000.0,027.3,020.0,6.5,0000.0,0000.50,0003.17,0000.32
2024-01-12 17:18:00,SystemResetWarning,0817.1,5.00,000.00,018.8,017.5,000.0,027.3,020.0,6.5,0000.0,0000.51,0003.17,0000.32
2024-01-12 17:19:00,SystemResetWarning,0817.2,5.00,000.00,018.8,017.4,000.0,027.3,020.0,6.5,0000.0,0000.51,0003.23,0000.33
2024-01-12 17:20:00,SystemResetWarning,0817.2,5.00,000.00,018.8,017.3,000.0,027.4,020.0,6.5,0000.0,0000.51,0003.24,0000.33
2024-01-12 17:21:00,SystemResetWarning,0817.1,5.00,000.00,018.8,017.2,000.0,027.4,020.0,6.6,0000.0,0000.50,0003.23,0000.33
2024-01-12 17:22:00,SystemResetWarning,0817.2,5.00,000.00,018.7,017.2,000.0,027.4,020.0,6.7,0000.0,0000.49,0003.20,0000.33
2024-01-12 17:23:00,SystemResetWarning,0817.1,5.01,000.00,018.7,017.2,000.0,027.4,020.0,6.7,0000.0,0000.48,0003.31,0000.33
2024-01-12 17:24:00,SystemResetWarning,0817.1,5.01,000.00,018.7,017.1,000.0,027.4,020.0,6.6,0000.0,0000.52,0004.11,0000.32
2024-01-12 17:25:00,SystemResetWarning,0817.1,5.00,000.00,018.8,017.3,000.0,027.3,020.2,6.5,0000.0,0000.53,0003.95,0000.32
2024-01-12 17:26:00,SystemResetWarning,0817.2,5.00,000.00,018.9,018.5,000.0,027.3,020.8,6.5,0000.0,0000.52,0002.49,0000.32
2024-01-12 17:27:00,SystemResetWarning,0817.2,4.99,000.00,019.1,019.2,000.0,027.3,021.0,6.6,0000.0,0000.48,0001.83,0000.31
2024-01-12 17:28:00,SystemResetWarning,0817.2,4.99,000.00,019.1,019.1,000.0,027.3,020.6,6.6,0000.0,0000.47,0001.81,0000.30
2024-01-12 17:29:00,SystemResetWarning,0817.1,4.99,000.00,019.1,018.9,000.0,027.3,020.3,6.6,0000.0,0000.49,0001.89,0000.30
2024-01-12 17:30:00,SystemResetWarning,0817.0,5.00,000.00,019.0,018.6,000.0,027.3,020.1,6.7,0000.0,0000.49,0001.90,0000.29
2024-01-12 17:31:00,SystemResetWarning,0817.1,5.01,000.00,018.9,018.3,000.0,027.3,020.0,6.8,0000.0,0000.52,0001.89,0000.29
2024-01-12 17:32:00,SystemResetWarning,0817.1,5.01,000.00,018.9,018.0,000.0,027.3,020.0,6.8,0000.0,0000.54,0001.96,0000.29
2024-01-12 17:33:00,SystemResetWarning,0817.0,5.00,000.00,018.9,017.9,000.0,027.3,020.0,6.9,0000.0,0000.55,0002.04,0000.29
2024-01-12 17:34:00,SystemResetWarning,0816.9,4.99,000.00,018.8,017.7,000.0,027.3,020.0,6.8,0000.0,0000.56,0001.84,0000.30
2024-01-12 17:35:00,SystemResetWarning,0816.9,5.00,000.00,018.8,017.6,000.0,027.3,020.0,6.8,0000.0,0000.53,0001.12,0000.29
2024-01-12 17:36:00,SystemResetWarning,0816.9,5.01,000.00,018.8,017.4,000.0,027.3,020.0,6.9,0000.0,0000.56,0001.20,0000.29
2024-01-12 17:37:00,SystemResetWarning,0816.9,5.01,000.00,018.8,017.3,000.0,027.3,020.0,6.9,0000.0,0000.60,0001.32,0000.30
2024-01-12 17:38:00,SystemResetWarning,0817.0,4.99,000.00,018.8,017.2,000.0,027.4,020.0,6.9,0000.0,0000.62,0001.36,0000.31
2024-01-12 17:39:00,SystemResetWarning,0817.0,4.99,000.00,018.7,017.2,000.0,027.4,020.0,6.9,0000.0,0000.64,0001.39,0000.32
2024-01-12 17:40:00,SystemResetWarning,0817.0,4.99,000.00,018.7,017.1,000.0,027.4,020.0,6.8,0000.0,0000.61,0001.30,0000.32
2024-01-12 17:41:00,SystemResetWarning,0816.9,5.01,000.00,018.7,017.1,000.0,027.3,020.0,6.8,0000.0,0000.58,0001.21,0000.32
2024-01-12 17:42:00,SystemResetWarning,0816.9,5.01,000.00,018.7,017.4,000.0,027.3,020.2,6.8,0000.0,0000.56,0001.15,0000.31
2024-01-12 17:43:00,SystemResetWarning,0816.9,5.01,000.00,018.9,018.5,000.0,027.3,020.7,6.8,0000.0,0000.56,0001.13,0000.31
2024-01-12 17:44:00,SystemResetWarning,0816.9,4.99,000.00,019.0,019.4,000.0,027.3,021.0,6.7,0000.0,0000.57,0001.06,0000.31
2024-01-12 17:45:00,SystemResetWarning,0816.9,4.99,000.00,019.1,019.3,000.0,027.3,020.7,6.7,0000.0,0000.54,0001.01,0000.30
2024-01-12 17:46:00,SystemResetWarning,0816.8,5.01,000.00,019.1,019.0,000.0,027.3,020.5,6.7,0000.0,0000.53,0000.96,0000.30
2024-01-12 17:47:00,SystemResetWarning,0816.8,5.01,000.00,019.1,018.8,000.0,027.3,020.3,6.7,0000.0,0000.51,0000.87,0000.30
2024-01-12 17:48:00,SystemResetWarning,0816.9,5.00,000.00,019.0,018.5,000.0,027.3,020.1,6.8,0000.0,0000.48,0000.76,0000.30
2024-01-12 17:49:00,SystemResetWarning,0816.8,4.99,000.00,018.9,018.3,000.0,027.3,020.0,6.8,0000.0,0000.49,0000.80,0000.31
2024-01-12 17:50:00,SystemResetWarning,0816.8,4.99,000.00,018.9,018.1,000.0,027.3,020.0,6.8,0000.0,0000.50,0000.83,0000.31
2024-01-12 17:51:00,SystemResetWarning,0816.8,5.00,000.00,018.9,017.9,000.0,027.3,020.0,6.7,0000.0,0000.50,0000.82,0000.31
2024-01-12 17:52:00,SystemResetWarning,0816.8,5.01,000.00,018.8,017.8,000.0,027.3,020.0,6.7,0000.0,0000.53,0000.85,0000.31
2024-01-12 17:53:00,SystemResetWarning,0816.8,5.01,000.00,018.8,017.7,000.0,027.3,020.0,6.7,0000.0,0000.54,0000.92,0000.31
2024-01-12 17:54:00,SystemResetWarning,0816.8,5.01,000.00,018.8,017.6,000.0,027.3,020.0,6.6,0000.0,0000.56,0000.98,0000.31
2024-01-12 17:55:00,SystemResetWarning,0816.9,5.00,000.00,018.8,017.5,000.0,027.3,020.0,6.7,0000.0,0000.55,0001.00,0000.31
2024-01-12 17:56:00,SystemResetWarning,0816.8,5.00,000.00,018.7,017.5,000.0,027.3,020.0,6.7,0000.0,0000.57,0001.04,0000.31
2024-01-12 17:57:00,SystemResetWarning,0816.7,4.99,000.00,018.7,017.4,000.0,027.3,020.0,6.8,0000.0,0000.57,0001.15,0000.32
2024-01-12 17:58:00,SystemResetWarning,0816.7,5.00,000.00,018.7,017.4,000.0,027.3,020.0,6.8,0000.0,0000.56,0001.12,0000.32
2024-01-12 17:59:00,SystemResetWarning,0816.6,5.01,000.00,018.7,017.3,000.0,027.3,020.0,6.8,0000.0,0000.56,0001.13,0000.33
